Bellaire, MI

5:00 AM EST on February 22, 2018 (GMT -0500)
Antrim County

Weather History for KACB - January, 2013

Change the Weather History Date:

Wednesday, January 23, 2013

  Actual Average (KCVX) Record (KCVX)
Temperature  
Mean Temperature 10 °F -  
Max Temperature 14 °F 28 °F 46 °F (2002)
Min Temperature 7 °F 14 °F -14 °F (2011)
Degree Days  
Heating Degree Days 54    
Moisture  
Dew Point 6 °F    
Average Humidity 78    
Maximum Humidity 86    
Minimum Humidity 64    
Precipitation  
Precipitation 0.00 in - - ()
Sea Level Pressure  
Sea Level Pressure 30.10 in    
Wind  
Wind Speed 6 mph (WSW)    
Max Wind Speed 13 mph    
Max Gust Speed 20 mph    
Visibility 4 miles    
Events Snow    
Averages and records for this station are not official NWS values.
T = Trace of Precipitation, MM = Missing Value Source: NWS Daily Summary

Daily Weather History Graph

Daily Weather History Graph

Search for Another Location

Airport or City:

Trip Planner

Search our weather history database for the weather conditions in past years. The results will help you decide how hot, cold, wet, or windy it might be!

Date:

Astronomy

Jan. 23, 2013 Rise Set
Actual Time 8:09 AM EST 5:36 PM EST
Civil Twilight 7:37 AM EST 6:08 PM EST
Nautical Twilight 7:01 AM EST 6:44 PM EST
Astronomical Twilight 6:26 AM EST 7:19 PM EST
Moon 2:44 PM EST (1/23) 5:22 AM EST (1/23)
Length of Visible Light 10h 31m
Length of Day
9h 27m
Waxing Gibbous, 89% of the Moon is Illuminated
Jan 23
Waxing Gibbous
Jan 26
Full
Feb 3
Last Quarter
Feb 10
New
Feb 17
First Quarter

Hourly Weather History & Observations

Time (EST) Temp. Windchill Dew Point Humidity Pressure Visibility Wind Dir Wind Speed Gust Speed Precip Events Conditions
12:14 AM 10.0 °F -0.9 °F 0.9 °F 66% 30.18 in 10.0 mi WNW 6.9 mph - N/A   Overcast
12:35 AM 10.2 °F 2.0 °F 1.2 °F 67% 30.18 in 7.0 mi WNW 4.6 mph - N/A Snow Light Snow
12:54 AM 10.4 °F -0.4 °F 1.0 °F 66% 30.18 in 10.0 mi West 6.9 mph - N/A   Overcast
1:14 AM 10.4 °F -1.5 °F 0.3 °F 64% 30.18 in 10.0 mi WNW 8.1 mph - N/A   Overcast
1:35 AM 10.4 °F 2.2 °F 0.7 °F 65% 30.18 in 10.0 mi West 4.6 mph - N/A Snow Light Snow
1:54 AM 10.4 °F 0.8 °F 3.9 °F 75% 30.17 in 2.0 mi WSW 5.8 mph - N/A Snow Light Snow
2:14 AM 10.4 °F 4.0 °F 4.1 °F 76% 30.17 in 5.0 mi West 3.5 mph - N/A Snow Light Snow
2:34 AM 10.6 °F 2.5 °F 2.5 °F 70% 30.17 in 10.0 mi WSW 4.6 mph - N/A   Overcast
2:54 AM 10.4 °F 0.8 °F 5.0 °F 79% 30.18 in 2.0 mi WSW 5.8 mph - N/A Snow Light Snow
3:15 AM 10.2 °F 0.6 °F 5.5 °F 81% 30.17 in 1.8 mi WSW 5.8 mph - N/A Snow Light Snow
3:34 AM 10.4 °F 4.0 °F 4.6 °F 78% 30.17 in 3.0 mi West 3.5 mph - N/A Snow Light Snow
3:55 AM 10.4 °F 2.2 °F 4.1 °F 76% 30.16 in 7.0 mi SW 4.6 mph - N/A Snow Light Snow
4:15 AM 10.4 °F 2.2 °F 4.8 °F 78% 30.15 in 3.0 mi SW 4.6 mph - N/A Snow Light Snow
4:34 AM 10.2 °F -0.6 °F 5.4 °F 81% 30.15 in 2.0 mi South 6.9 mph - N/A Snow Light Snow
4:55 AM 9.1 °F -0.7 °F 4.8 °F 83% 30.14 in 2.5 mi South 5.8 mph - N/A Snow Light Snow
5:15 AM 8.4 °F -1.6 °F 3.9 °F 82% 30.13 in 4.0 mi South 5.8 mph - N/A Snow Light Snow
5:34 AM 8.6 °F -4.7 °F 4.1 °F 82% 30.13 in 2.5 mi South 9.2 mph - N/A Snow Light Snow
5:55 AM 7.5 °F -2.6 °F 2.8 °F 81% 30.13 in 3.0 mi South 5.8 mph - N/A Snow Light Snow
6:14 AM 7.2 °F -4.3 °F 2.1 °F 80% 30.13 in 4.0 mi South 6.9 mph - N/A Snow Light Snow
6:34 AM 7.5 °F -6.0 °F 2.8 °F 81% 30.13 in 1.8 mi South 9.2 mph - N/A Snow Light Snow
6:55 AM 7.5 °F -5.0 °F 3.2 °F 82% 30.12 in 1.8 mi South 8.1 mph - N/A Snow Light Snow
7:14 AM 7.7 °F -3.7 °F 3.2 °F 82% 30.12 in 2.0 mi South 6.9 mph - N/A Snow Light Snow
7:35 AM 7.7 °F - 3.9 °F 85% 30.11 in 1.2 mi Calm Calm - N/A Snow Light Snow
7:55 AM 8.6 °F 0.1 °F 4.8 °F 85% 30.10 in 1.2 mi South 4.6 mph - N/A Snow Snow
8:14 AM 10.4 °F 4.0 °F 6.3 °F 83% 30.10 in 1.8 mi WSW 3.5 mph - N/A Snow Light Snow
8:35 AM 10.9 °F 1.4 °F 6.4 °F 82% 30.10 in 0.8 mi WSW 5.8 mph - N/A Snow Light Snow
8:55 AM 10.9 °F -1.8 °F 6.1 °F 81% 30.09 in 1.0 mi SW 9.2 mph - N/A Snow Light Snow
9:14 AM 10.4 °F -2.4 °F 5.0 °F 79% 30.10 in 1.2 mi SW 9.2 mph 17.3 mph N/A Snow Light Snow
9:35 AM 10.4 °F 2.2 °F 4.1 °F 76% 30.10 in 4.0 mi SW 4.6 mph - N/A   Haze
9:55 AM 10.9 °F -3.4 °F 3.6 °F 72% 30.10 in 10.0 mi SW 11.5 mph - N/A   Overcast
10:14 AM 11.3 °F -1.3 °F 2.8 °F 69% 30.10 in 10.0 mi WSW 9.2 mph - N/A   Overcast
10:35 AM 11.3 °F -0.4 °F 3.0 °F 69% 30.09 in 10.0 mi SW 8.1 mph 18.4 mph N/A   Overcast
10:54 AM 12.0 °F 1.5 °F 3.6 °F 69% 30.10 in 10.0 mi SW 6.9 mph 18.4 mph N/A   Overcast
11:15 AM 12.2 °F 1.7 °F 3.0 °F 67% 30.10 in 10.0 mi SW 6.9 mph 16.1 mph N/A   Overcast
11:35 AM 12.2 °F -0.2 °F 3.6 °F 68% 30.09 in 5.0 mi SW 9.2 mph 19.6 mph N/A   Haze
11:54 AM 12.9 °F 1.6 °F 4.1 °F 68% 30.08 in 10.0 mi WSW 8.1 mph - N/A   Overcast
12:15 PM 12.9 °F -1.6 °F 5.5 °F 72% 30.07 in 2.0 mi SW 12.7 mph 19.6 mph N/A   Overcast
12:35 PM 13.1 °F 1.8 °F 5.7 °F 72% 30.06 in 2.5 mi SW 8.1 mph - N/A   Overcast
12:54 PM 13.5 °F 3.3 °F 6.8 °F 75% 30.06 in 1.8 mi WSW 6.9 mph - N/A   Overcast
1:15 PM 13.6 °F 2.5 °F 6.8 °F 74% 30.05 in 2.0 mi SW 8.1 mph - N/A   Overcast
1:35 PM 13.6 °F 4.6 °F 7.5 °F 77% 30.03 in 1.2 mi WSW 5.8 mph - N/A   Overcast
1:55 PM 13.1 °F -0.7 °F 7.7 °F 79% 30.02 in 1.0 mi SW 11.5 mph - N/A   Overcast
2:15 PM 13.8 °F 1.8 °F 7.5 °F 76% 30.02 in 1.5 mi WSW 9.2 mph - N/A   Overcast
2:34 PM 13.6 °F 1.6 °F 7.7 °F 77% 30.01 in 1.0 mi SW 9.2 mph 18.4 mph N/A   Overcast
2:55 PM 13.8 °F 2.7 °F 7.3 °F 75% 30.01 in 1.2 mi WSW 8.1 mph - N/A   Overcast
3:14 PM 14.0 °F 3.9 °F 7.0 °F 74% 30.01 in 2.0 mi WSW 6.9 mph - N/A   Overcast
3:35 PM 14.0 °F 5.1 °F 6.8 °F 73% 30.01 in 2.5 mi WSW 5.8 mph - N/A   Overcast
3:54 PM 14.0 °F 3.9 °F 6.4 °F 72% 30.01 in 2.5 mi SW 6.9 mph 17.3 mph N/A   Overcast
4:15 PM 13.8 °F 6.2 °F 6.8 °F 74% 30.01 in 3.0 mi WSW 4.6 mph - N/A   Overcast
4:34 PM 13.8 °F 4.9 °F 7.9 °F 77% 30.01 in 2.0 mi SW 5.8 mph - N/A   Overcast
4:55 PM 13.8 °F 3.7 °F 8.2 °F 78% 30.01 in 1.8 mi WSW 6.9 mph - N/A   Overcast
5:15 PM 13.5 °F 4.4 °F 8.2 °F 80% 30.01 in 2.0 mi WSW 5.8 mph - N/A   Overcast
5:34 PM 13.6 °F 6.0 °F 8.6 °F 80% 30.02 in 2.5 mi SSW 4.6 mph - N/A   Overcast
5:55 PM 14.0 °F 5.1 °F 9.7 °F 83% 30.02 in 0.8 mi West 5.8 mph - N/A   Overcast
6:15 PM 14.0 °F - 10.4 °F 86% 30.03 in 1.2 mi Calm Calm - N/A   Overcast
6:35 PM 14.0 °F 8.2 °F 10.4 °F 86% 30.03 in 1.5 mi West 3.5 mph - N/A   Overcast
6:55 PM 14.0 °F 6.5 °F 10.4 °F 86% 30.03 in 1.5 mi West 4.6 mph - N/A   Overcast
7:15 PM 13.8 °F 4.9 °F 10.2 °F 86% 30.04 in 1.2 mi NNW 5.8 mph - N/A   Overcast
7:35 PM 13.6 °F 6.0 °F 10.0 °F 86% 30.05 in 1.5 mi NNW 4.6 mph - N/A   Overcast
7:55 PM 13.6 °F 6.0 °F 9.5 °F 84% 30.06 in 2.5 mi North 4.6 mph - N/A   Overcast
8:14 PM 13.1 °F - 9.1 °F 84% 30.07 in 3.0 mi Calm Calm - N/A   Overcast
8:35 PM 12.7 °F - 8.1 °F 82% 30.07 in 10.0 mi Calm Calm - N/A   Overcast
8:55 PM 12.2 °F - 7.2 °F 80% 30.08 in 10.0 mi Calm Calm - N/A   Overcast
9:14 PM 12.2 °F - 7.5 °F 82% 30.09 in 4.0 mi Calm Calm - N/A   Overcast
9:35 PM 11.8 °F - 7.7 °F 83% 30.11 in 10.0 mi Calm Calm - N/A   Overcast
9:55 PM 11.5 °F 0.9 °F 7.3 °F 83% 30.12 in 3.0 mi NE 6.9 mph - N/A   Overcast
10:15 PM 12.2 °F 2.9 °F 7.7 °F 82% 30.13 in 2.5 mi NE 5.8 mph - N/A   Overcast
10:35 PM 11.5 °F - 7.2 °F 83% 30.14 in 2.0 mi Calm Calm - N/A   Overcast
10:54 PM 10.0 °F 0.4 °F 5.5 °F 82% 30.15 in 10.0 mi NE 5.8 mph - N/A   Mostly Cloudy
11:14 PM 8.4 °F 1.8 °F 4.1 °F 83% 30.15 in 10.0 mi NNE 3.5 mph - N/A   Scattered Clouds
11:35 PM 7.7 °F - 3.4 °F 83% 30.17 in 10.0 mi Calm Calm - N/A   Clear
11:54 PM 7.0 °F 0.1 °F 2.7 °F 82% 30.19 in 10.0 mi North 3.5 mph - N/A   Clear